Miscellaneous Local Product
Issued by NWS Hastings, NE

Home | Current Version | Previous Version | Graphics & Text | Print | Product List | Glossary On
Versions: 1 2 3 4 5 6 7 8 9 10 11 12 13 14 15 16 17 18 19 20 21 22 23 24 25 26 27 28 29 30 31 32 33 34 35 36 37 38 39 40 41 42 43 44 45 46 47 48 49 50
000
AXUS43 KGID 270902
MISGRI

GID CWA HOURLY WEATHER ROUNDUP
NATIONAL WEATHER SERVICE HASTINGS NE
400 AM CDT SUN JUL 27 2014

NOTE: "FAIR" INDICATES FEW OR NO CLOUDS BELOW 12,000 FEET WITH NO
SIGNIFICANT WEATHER AND/OR OBSTRUCTIONS TO VISIBILITY.

...SOUTH CENTRAL NEBRASKA...

CITY           SKY/WX    TMP DP  RH WIND       PRES   REMARKS
GRAND ISLAND   CLEAR     66  62  87 NW7       30.07R
HASTINGS       CLEAR     68  62  81 NW6       30.06R
KEARNEY        CLEAR     64  59  82 NW6       30.08S
ORD            CLEAR     62  58  86 NW7       30.09R
YORK             N/A     66  66 100 NW7       30.05R FOG
AURORA         CLEAR     67  67 100 NW6       30.06R
LEXINGTON      CLEAR     61  59  94 CALM      30.10S
HOLDREGE       CLEAR     63  60  90 N5        30.08S
HEBRON         CLEAR     70  67  89 CALM      30.01S FOG

...NEBRASKA PANHANDLE...

CITY           SKY/WX    TMP DP  RH WIND       PRES   REMARKS
CHADRON        CLEAR     52  47  83 W3        30.23R
ALLIANCE       CLEAR     55  47  74 CALM      30.25R
SCOTTSBLUFF    CLEAR     62  50  64 NE6       30.25R
SIDNEY         CLEAR     61  57  87 CALM      30.25R

...WESTERN AND NORTH CENTRAL NEBRASKA...

CITY           SKY/WX    TMP DP  RH WIND       PRES   REMARKS
VALENTINE      CLEAR     55  48  77 NW5       30.15S
AINSWORTH      CLEAR     59  48  68 NW7       30.15S
ONEILL         PTCLDY    63  51  64 NW9       30.09S
BROKEN BOW     CLEAR     60  56  86 N6        30.12R
IMPERIAL       PTCLDY    64  59  83 N3        30.17R
NORTH PLATTE   CLEAR     60  58  92 CALM      30.15R
MCCOOK         PTCLDY    66  60  81 N3        30.11R

...EASTERN NEBRASKA...

CITY           SKY/WX    TMP DP  RH WIND       PRES   REMARKS
NORFOLK        CLEAR     64  57  78 W5        30.04R
SO SIOUX CITY  CLEAR     65  60  84 N6        29.99R
COLUMBUS       CLEAR     66  63  88 N9        30.03R
ALBION         PTCLDY    64  58  82 N5        30.07R
OMAHA EPPLEY   CLEAR     71  69  93 N5        29.97R FOG
OFFUTT AFB     CLEAR     69  69 100 NW6       29.95S
MILLARD        CLEAR     73  70  91 CALM      29.96S
LINCOLN        CLEAR     73  69  87 NW6       30.00R
NEBRASKA CITY  CLEAR     71  71 100 N6        29.96S FOG
BEATRICE       CLEAR     69  69  98 CALM      29.99S FOG
FALLS CITY     NOT AVBL

...NORTHERN KANSAS...

CITY           SKY/WX    TMP DP  RH WIND       PRES   REMARKS
GOODLAND       CLOUDY    65  61  87 N6        30.18R
HILL CITY      PTCLDY    69  64  84 CALM      30.08R
NORTON         SUNNY     63  57  82 NW6       30.07S
PHILLIPSBURG   CLEAR     72  63  73 N3        30.05R
SMITH CENTER   CLEAR     72  66  83 NE10      30.03R
HAYS           MOCLDY    79  68  69 NE12      30.06F
RUSSELL        CLOUDY    79  71  76 SE5       30.06R
CONCORDIA      CLEAR     74  72  93 N6        30.00S
SALINA         MOCLDY    82  75  79 NE12      29.99R
TOPEKA         CLEAR     79  76  90 N9        29.94R



USA.gov is the U.S. government's official web portal to all federal, state and local government web resources and services.